Погода в Барабановке

Россия / Оренбургская область     52°11′57″N   53°29′14″E
темп.,
°C
ветер,
м/с
пор.,
м/с
влажн.,
%
обл.,
%
осадки,
мм/ч
давл.,
гПа
погр.,
м
23 мая, пн
пн2323:00+6ююв2389100 0.6 1001114
02:00+7вюв4890100 0.2 998453
05:00+7всв4995100 2.9 996460
08:00+7св3596100 0.9 995358
11:00+8с2293100 1.0 997432
14:00+9сз2386100 0.1 1000689
17:00+10зюз1281100 0.1 1002598
20:00+10ссз117986 0.0 100298
24 мая, вт
вт2423:00+9в2286100 0.3 100320
02:00+8в1195100 1.1 100327
05:00+8ссз119370 1.1 100410
08:00+10ссз238295 0.0 1005313
11:00+13ссз4367100 0.0 10051076
14:00+13с3262100 0.0 1006899
17:00+13всв1165100 0.3 1007588
20:00+11с2485100 0.8 1007154
25 мая, ср
ср2523:00+9с2285100 0.8 100812
02:00+8ссз2284100 0.0 100813
05:00+8зсз1183100 0.0 100811
08:00+10сз2369100 0.0 1008182
11:00+14з3451100 0.0 10081199
14:00+15з5549100 0.0 10082142
17:00+15зсз555199 0.1 10091646
20:00+11сз5670100 0.0 1011722
26 мая, чт
чт2623:00+7сз488218 0.0 1012218
02:00+5сз368430 0.0 1012119
05:00+4зсз35875 0.0 101397
08:00+7зсз46712 0.0 1014366
11:00+11з455423 0.0 10141559
14:00+12з5649100 0.1 10142063
17:00+12зюз4649100 0.1 10151773
20:00+11юз476255 0.1 1014406
27 мая, пт
пт2723:00+8ююз477396 0.1 1015111
02:00+7ю5137698 0.0 1013304
05:00+8ю81772100 0.0 1011482
08:00+10ю91773100 0.0 1010513
11:00+13ююз101471100 0.1 1009981
14:00+12ю81788100 1.1 10081458
17:00+11ююз8139082 1.7 1006661
20:00+13ююз5108366 0.2 1006731